Location: Valley of Enchantment
(34.2467°N, 117.3048°W)
Time: 05:57:02
(UTC+00:00)

Cosmos 1867 - Pass Details

Date: 10 September 2024
Orbit: 772 x 802 km, 65.0° (Epoch: 09 October)

Event Time Altitude Azimuth Distance (km) Brightness Sun altitude
Exits shadow 12:03:55 26° 219° (SW) 1,504 4.5 -18.0°
Maximum altitude 12:07:00 73° 299° (WNW) 832 3.5 -17.4°
Drops below altitude 10° 12:12:27 10° 25° (NNE) 2,375 6.6 -16.4°
Sets 12:14:55 0° 27° (NNE) 3,311 7.5 -15.9°
